Hourly Data Report for October 17, 2016

All times are specified in Local Standard Time (LST). Add 1 hour to adjust for Daylight Saving Time where and when it is observed.

MONCTON INTL A
NEW BRUNSWICK

46°06'44.000" N
64°40'43.000" W
70.70 m
8103201
71705
YQM

Download Data

Hourly Data (October 2016)
Hourly Data Report for October 17, 2016
Temp Definition
°C
Dew Point Temp Definition
°C
Rel Hum Definition
%
Wind Dir Definition
10's deg

Wind Spd Definition
km/h
Visibility Definition
km
Stn Press Definition
kPa
Hmdx Definition


Wind Chill Definition


Weather Definition


TIME
00:00 Legend Double Dagger 12.3 11.5 95 22 18 16.1 99.84     Rain
01:00 Legend Double Dagger 12.3 11.7 96 23 19 16.1 99.84     Rain
02:00 Legend Double Dagger 12.2 11.6 96 24 21 24.1 99.83     Cloudy
03:00 Legend Double Dagger 12.2 11.6 96 25 18 24.1 99.79     LegendNANA
04:00 Legend Double Dagger 12.1 11.3 95 25 17 24.1 99.76     LegendNANA
05:00 Legend Double Dagger 12.0 11.2 95 25 16 24.1 99.81     Cloudy
06:00 Legend Double Dagger 11.7 11.1 96 22 11 24.1 99.82     LegendNANA
07:00 Legend Double Dagger 11.5 11.1 97 25 14 24.1 99.87     LegendNANA
08:00 Legend Double Dagger 12.2 11.3 94 25 16 24.1 99.92     Mainly Clear
09:00 Legend Double Dagger 13.7 11.8 88 26 17 20.9 99.95     LegendNANA
10:00 Legend Double Dagger 15.1 11.7 80 26 13 24.1 99.94     LegendNANA
11:00 Legend Double Dagger 15.6 10.8 73 27 16 24.1 99.88     Mostly Cloudy
12:00 Legend Double Dagger 16.0 10.4 69 26 17 24.1 99.85     LegendNANA
13:00 Legend Double Dagger 17.2 10.4 64 26 19 24.1 99.84     LegendNANA
14:00 Legend Double Dagger 16.1 7.4 56 30 25 24.1 99.87     Mostly Cloudy
15:00 Legend Double Dagger 15.5 6.3 54 28 22 24.1 99.88     LegendNANA
16:00 Legend Double Dagger 14.9 6.3 56 30 23 24.1 99.95     LegendNANA
17:00 Legend Double Dagger 13.6 5.6 58 30 17 24.1 100.01     Mainly Clear
18:00 Legend Double Dagger 10.8 4.7 66 30 19 24.1 100.13     LegendNANA
19:00 Legend Double Dagger 8.9 3.8 70 31 11 24.1 100.24     LegendNANA
20:00 Legend Double Dagger 8.2 3.7 73 27 14 24.1 100.29     Mostly Cloudy
21:00 Legend Double Dagger 7.4 3.3 75 29 12 24.1 100.39     LegendNANA
22:00 Legend Double Dagger 5.9 3.1 82 25 14 24.1 100.44     LegendNANA
23:00 Legend Double Dagger 5.6 3.0 83 28 15 24.1 100.46     Mainly Clear

Notes on Data Quality.

Legend

  • E = Estimated
  • M = Missing
  • NA = Not Available
  • ‡ = Partner data that is not subject to review by the National Climate Archives
Date modified: